Tracking 22881 objects as of 20-Apr-2021
HD Live streaming from Space Station
objects crossing your sky now

STARLINK-2184

Track STARLINK-2184 now!
10-day predictions
STARLINK-2184 is classified as:


NORAD ID: 47766
Int'l Code: 2021-017AW
Perigee: 542.1 km
Apogee: 544.2 km
Inclination: 53.0 °
Period: 95.4 minutes
Semi major axis: 6914 km
RCS: Unknown
Launch date: March 4, 2021
Source: United States (US)
Launch site: AIR FORCE EASTERN TEST RANGE (AFETR)
aabbcc
Your satellite tracking list
Your tracking list is empty




NASA's NSSDC Master Catalog

Two Line Element Set (TLE):
1 47766U 21017AW  21109.58334491 -.01039984  00000-0 -68085-1 0  9995
2 47766  53.0493 320.2823 0001507  62.6290 151.8403 15.10065436  1750
Source of the keplerian elements: AFSPC